This demonstration page uses our WeatherBlox Daily Observations layout. Learn more.

39.08367, -84.50855

Hourly Observations for October 21, 2019

Temp ( °F °C ) Dew Point ( °F °C ) Humidity (%) Winds ( mph kmh ) Pressure ( in mb ) Visibility ( mi km ) Precip ( " mm )
12:53 am 00:53 Clear 61 16.1 57 13.9 87 87 Calm 29.94 1014 10 16.09344 0 0
1:23 am 01:23 Clear with Mist and Fog 54 12.2 54 12.2 100 100 Calm 29.97 1015 2 3.218688 0 0
1:35 am 01:35 Clear with Mist and Fog 55 12.8 54 12.2 96 96 Calm 29.97 1015 4 6.437376 0 0
1:37 am 01:37 Clear with Mist and Fog 54 12.2 54 12.2 100 100 Calm 29.97 1015 1.5 2.414016 0 0
1:45 am 01:45 Clear with Fog 53 11.7 53 11.7 100 100 Calm 29.97 1015 0.25 0.402336 0 0
1:53 am 01:53 Clear with Fog 54 12.2 54 12.2 100 100 Calm 29.94 1014 0.25 0.402336 0 0
2:00 am 02:00 Clear with Mist and Fog 53 11.7 52 11.1 96 96 NE 3 6 29.94 1014 0.75 1.207008 0 0
2:06 am 02:06 Clear with Mist and Fog 54 12.2 54 12.2 100 100 NNE 3 6 29.94 1014 2 3.218688 0 0
2:29 am 02:29 Clear with Mist and Fog 52 11.1 52 11.1 100 100 Calm 29.94 1014 4 6.437376 0 0
2:33 am 02:33 Clear with Mist and Fog 53 11.7 53 11.7 100 100 NE 3 6 29.94 1014 1.5 2.414016 0 0
2:41 am 02:41 Clear with Fog 52 11.1 52 11.1 100 100 Calm 29.94 1014 0.5 0.804672 0 0
2:47 am 02:47 Clear with Mist and Fog 52 11 52 11 100 100 Calm 29.94 1014 2 3.218688 0 0
2:53 am 02:53 Clear with Mist and Fog 52 11.1 52 11.1 100 100 Calm 29.91 1013 2.5 4.02336 0 0
3:00 am 03:00 Clear with Mist and Fog 52 11.1 52 11.1 100 100 Calm 29.94 1014 0.75 1.207008 0 0
3:10 am 03:10 Clear with Mist and Fog 53 11.7 52 11.1 96 96 Calm 29.94 1014 2 3.218688 0 0
3:14 am 03:14 Mostly Cloudy with Mist and Fog 52 11.1 52 11.1 100 100 Calm 29.94 1014 1 1.609344 0 0
3:21 am 03:21 Clear with Fog 52 11.1 52 11.1 100 100 Calm 29.94 1014 0.5 0.804672 0 0
3:35 am 03:35 Mostly Cloudy with Fog 51 10.6 51 10.6 100 100 Calm 29.94 1014 0.25 0.402336 0 0
3:44 am 03:44 Mostly Cloudy with Fog 51 10.6 51 10.6 100 100 Calm 29.94 1014 0.25 0.402336 0 0
3:53 am 03:53 Mostly Cloudy with Fog 51 10.6 51 10.6 100 100 Calm 29.88 1012 0.5 0.804672 0 0
4:01 am 04:01 Partly Cloudy with Mist and Fog 52 11.1 52 11.1 100 100 Calm 29.94 1014 1.25 2.01168 0 0
4:04 am 04:04 Mostly Clear with Mist and Fog 51 10.6 51 10.6 100 100 Calm 29.94 1014 3 4.828032 0 0
4:07 am 04:07 Mostly Clear with Mist and Fog 51 10.6 51 10.6 100 100 Calm 29.94 1014 1.75 2.816352 0 0
4:11 am 04:11 Mostly Cloudy with Mist and Fog 50 10 50 10 100 100 ENE 3 6 29.94 1014 0.75 1.207008 0 0
4:48 am 04:48 Mostly Cloudy with Mist and Fog 50 10 50 10 100 100 Calm 29.94 1014 2.5 4.02336 0 0
4:53 am 04:53 Cloudy with Mist and Fog 49 9.4 49 9.4 100 100 Calm 29.88 1012 4 6.437376 0 0
5:38 am 05:38 Partly Cloudy with Mist and Fog 52 11.1 52 11.1 100 100 NNE 3 6 29.94 1014 1.5 2.414016 0 0
5:47 am 05:47 Mostly Clear with Mist and Fog 52 11 52 11 100 100 NNE 3 6 29.94 1014 3 4.828032 0 0
5:53 am 05:53 Mostly Clear with Mist and Fog 51 10.6 51 10.6 100 100 Calm 29.88 1012 1.25 2.01168 0 0
5:55 am 05:55 Mostly Cloudy with Mist and Fog 50 10 50 10 100 100 Calm 29.94 1014 0.75 1.207008 0 0
6:08 am 06:08 Mostly Cloudy with Mist and Fog 50 10 50 10 100 100 Calm 29.94 1014 1 1.609344 0 0
6:10 am 06:10 Partly Cloudy with Mist and Fog 51 10.6 50 10 96 96 Calm 29.94 1014 1.5 2.414016 0 0
6:22 am 06:22 Mostly Cloudy with Mist and Fog 52 11.1 52 11.1 100 100 Calm 29.94 1014 1 1.609344 0 0
6:30 am 06:30 Mostly Cloudy with Mist and Fog 52 11.1 52 11.1 100 100 Calm 29.94 1014 3 4.828032 0 0
6:53 am 06:53 Cloudy 52 11.1 52 11.1 100 100 Calm 29.88 1012 7 11.265408 0 0
7:04 am 07:04 Cloudy 54 12.2 54 12.2 100 100 Calm 29.94 1014 10 16.09344 0 0
7:11 am 07:11 Cloudy 55 12.8 54 12.2 96 96 Calm 29.94 1014 7 11.265408 0 0
7:53 am 07:53 Cloudy 59 15 57 13.9 93 93 SE 7 11 29.88 1012 10 16.09344 0 0
8:53 am 08:53 Mostly Cloudy 60 15.6 57 13.9 90 90 SSE 6 9 29.85 1011 10 16.09344 0 0
9:51 am 09:51 Partly Cloudy 61 16 57 14 88 88 SSE 9 15 29.85 1011 10 16.09344 0 0
9:53 am 09:53 Partly Cloudy 61 16.1 57 13.9 87 87 SSE 10 17 29.83 1010 10 16.09344 0 0
10:53 am 10:53 Partly Cloudy 65 18.3 58 14.4 78 78 ESE 13 20 29.8 1009 10 16.09344 0 0
11:53 am 11:53 Mostly Cloudy 69 20.6 58 14.4 68 68 SE 14 22 29.77 1008 10 16.09344 0 0
12:53 pm 12:53 Cloudy 67 19.4 60 15.6 79 79 S 12 19 29.8 1009 10 16.09344 0.01 0.254
1:53 pm 13:53 Mostly Cloudy 69 20.6 60 15.6 73 73 SSE 8 13 29.74 1007 10 16.09344 0.001 0.001
2:53 pm 14:53 Partly Cloudy with Light Rain 74 23.3 60 15.6 62 62 S 18 30 29.71 1006 10 16.09344 0.001 0.001
3:53 pm 15:53 Cloudy 75 23.9 59 15 58 58 S 20 31 29.71 1006 10 16.09344 0.001 0.001
4:53 pm 16:53 Cloudy 74 23.3 58 14.4 57 57 SW 13 20 29.71 1006 10 16.09344 0.001 0.001
5:53 pm 17:53 Cloudy with Light Rain 69 20.6 57 13.9 66 66 SSW 17 28 29.74 1007 10 16.09344 0.001 0.001
6:53 pm 18:53 Cloudy with Light Rain 64 17.8 61 16.1 90 90 S 10 17 29.74 1007 10 16.09344 0.01 0.254
7:53 pm 19:53 Cloudy with Light Rain 63 17.2 60 15.6 90 90 S 13 20 29.77 1008 9 14.484096 0.02 0.508
8:53 pm 20:53 Cloudy 63 17.2 60 15.6 90 90 S 13 20 29.77 1008 10 16.09344 0.02 0.508
9:53 pm 21:53 Mostly Cloudy 62 16.7 59 15 90 90 S 12 19 29.77 1008 10 16.09344 0 0
10:53 pm 22:53 Mostly Cloudy 62 16.7 59 15 90 90 S 13 20 29.77 1008 10 16.09344 0 0
11:53 pm 23:53 Cloudy 62 16.7 59 15 90 90 S 9 15 29.77 1008 10 16.09344 0 0

Powered by AerisWeather